This demonstration page uses our WeatherBlox Daily Observations layout. Learn more.

41.86663, -103.66717

Hourly Observations for September 23, 2020

Temp ( °F °C ) Dew Point ( °F °C ) Humidity (%) Winds ( mph kmh ) Pressure ( in mb ) Visibility ( mi km ) Precip ( " mm )
12:53 am 00:53 Clear 61 16.1 42 5.6 50 50 N 6 9 29.88 1012 10 16.0934 0 0
1:53 am 01:53 Clear 61 16.1 42 5.6 50 50 NW 5 7 29.89 1012 10 16.0934 0 0
2:53 am 02:53 Clear 60 15.6 44 6.7 56 56 NW 3 6 29.89 1012 10 16.0934 0 0
3:53 am 03:53 Clear 60 15.6 44 6.7 56 56 NW 7 11 29.89 1012 10 16.0934 0 0
4:53 am 04:53 Mostly Clear 63 17.2 45 7.2 52 52 NW 7 11 29.88 1012 10 16.0934 0 0
5:53 am 05:53 Clear 61 16.1 44 6.7 54 54 N 7 11 29.9 1013 10 16.0934 0 0
6:53 am 06:53 Sunny 61 16.1 44 6.7 54 54 NNW 6 9 29.92 1013 10 16.0934 0 0
7:53 am 07:53 Sunny 60 15.6 46 7.8 60 60 NNW 7 11 29.96 1014 10 16.0934 0 0
8:53 am 08:53 Partly Cloudy 68 20 47 8.3 47 47 WNW 7 11 29.96 1015 10 16.0934 0 0
9:53 am 09:53 Partly Cloudy 71 21.7 49 9.4 46 46 WNW 8 13 29.97 1015 10 16.0934 0 0
10:53 am 10:53 Sunny 81 27.2 45 7.2 28 28 W 15 24 29.94 1014 10 16.0934 0 0
11:53 am 11:53 Sunny 83 28.3 43 6.1 24 24 W 10 17 29.93 1013 10 16.0934 0 0
12:53 pm 12:53 Sunny 88 31.1 41 5 19 19 W 12 19 29.9 1012 10 16.0934 0 0
1:53 pm 13:53 Sunny 89 31.7 38 3.3 16 16 W 13 20 29.88 1012 10 16.0934 0 0
2:53 pm 14:53 Sunny 89 31.7 37 2.8 16 16 W 8 13 29.87 1011 10 16.0934 0 0
3:53 pm 15:53 Sunny 89 31.7 35 1.7 15 15 WNW 9 15 29.85 1011 10 16.0934 0 0
4:53 pm 16:53 Sunny 89 31.7 37 2.8 16 16 WNW 8 13 29.84 1011 10 16.0934 0 0
5:53 pm 17:53 Sunny 85 29.4 37 2.8 18 18 W 7 11 29.86 1011 10 16.0934 0 0
6:53 pm 18:53 Clear 73 22.8 41 5 32 32 NNW 6 9 29.89 1012 8 12.87472 0 0
7:53 pm 19:53 Clear 67 19.4 40 4.4 37 37 NNE 7 11 29.92 1013 10 16.0934 0 0
8:53 pm 20:53 Clear 65 18.3 37 2.8 36 36 W 5 7 29.92 1013 10 16.0934 0 0
9:53 pm 21:53 Clear 62 16.7 38 3.3 41 41 NNW 5 7 29.93 1013 10 16.0934 0 0
10:53 pm 22:53 Clear 63 17.2 35 1.7 35 35 NNW 9 15 29.92 1013 10 16.0934 0 0
11:53 pm 23:53 Clear 58 14.4 39 3.9 50 50 WNW 6 9 29.92 1013 10 16.0934 0 0

Powered by AerisWeather